sat.trackr.live / text

‹ back to catalog

SPACEMOBILE-006

NORAD 67232 · 2025-309A

PAYLOAD ACTIVE UNKNOWN

§ Identity

Operator
Country
US
Launch date
2025-12-24
Launch site
SRILR
Launch vehicle
Mass (kg)
RCS (m²)

External: N2YO · Heavens-Above · Gunter

§ Orbital elements

Epoch: 2026-09-20T06:23:03.590592Z

Period
94.80 min
Inclination
52.9962°
Eccentricity
0.0012243
Mean motion
15.18918158 rev/d
Perigee alt
500.7 km
Apogee alt
517.5 km
Semi-major
6,887.2 km
B*
1.2008e-4
RAAN
256.0100°
Arg perigee
68.0939°
Mean anomaly
292.1355°
Rev number
4,104

§ Raw data

SPACEMOBILE-0061 67232U 25309A   26263.26601378  .00002219  00000+0  12008-3 0  99982 67232  52.9962 256.0100 0012243  68.0939 292.1355 15.18918158 41049

JSON: /api/v1/satellites/67232 · /tle

For live sub-satellite position, see the globe view (requires WebGL).

§ Visibility from observer

Set your observer location to see the next 7 days of passes ≥ 10°. The values pass through the URL so the page stays shareable.

No JS? Fill the form by hand. The geolocation button needs JavaScript.

§ Radio — SatNOGS DB

ModeDescriptionDownlinkUplink
GFSK Mode U - Transmitter 435.000 MHz
GFSK Mode U - Unconfirmed Transmitter 1 430.500 MHz
GFSK Mode U - Unconfirmed Transmitter 2 432.300 MHz
GFSK Mode U - Unconfirmed Transmitter 3 434.100 MHz
GFSK Mode U - Unconfirmed Transmitter 4 435.900 MHz
GFSK Mode U - Unconfirmed Transmitter 5 437.500 MHz
GFSK Mode U - Unconfirmed Transmitter 6 439.500 MHz

7 transmitters · refreshed weekly from db.satnogs.org